Location: Kaiser
(34.0939°N, 117.4889°W)
Time: 21:47:57
(UTC+00:00)

COSMO-SKYMED 1 - Pass Details

Date: 29 October 2020
Orbit: 621 x 623 km, 97.9° (Epoch: 26 November)

Event Time Altitude Azimuth Distance (km) Brightness Sun altitude
Rises 13:20:31 0° 174° (S) 2,887 6.2 -10.3°
Reaches altitude 10° 13:22:43 10° 178° (S) 1,985 5.3 -9.9°
Maximum altitude 13:27:00 63° 259° (W) 696 2.6 -9.0°
Drops below altitude 10° 13:31:18 10° 341° (NNW) 1,997 4.9 -8.1°
Sets 13:33:31 0° 344° (NNW) 2,907 5.7 -7.7°
